Location: Newark
(43.0000°N, 1.6781°W)
Time: 00:33:28
(UTC+00:00)

LilacSat-2 - Pass Details

Date: 05 December 2022
Orbit: 504 x 521 km, 97.5° (Epoch: 08 February)

Event Time Altitude Azimuth Distance (km) Brightness Sun altitude
Rises 05:16:49 0° 27° (NNE) 2,617 ? -22.2°
Reaches altitude 10° 05:19:17 10° 43° (NE) 1,725 ? -21.8°
Maximum altitude 05:22:11 21° 94° (E) 1,166 ? -21.3°
Drops below altitude 10° 05:25:03 10° 146° (SE) 1,711 ? -20.7°
Sets 05:27:29 0° 162° (SSE) 2,590 ? -20.3°
